North Bend, OR

6:50 PM PDT on March 26, 2017 (GMT -0700)
North Bend Municipal

Weather History for KOTH - November, 2010

Change the Weather History Date:

Thursday, November 25, 2010

  Actual Average Record
Temperature  
Mean Temperature 38 °F 47 °F  
Max Temperature 46 °F 53 °F 70 °F (1947)
Min Temperature 30 °F 41 °F 28 °F (1985)
Degree Days  
Heating Degree Days 27 18  
Month to date heating degree days 405 395  
Since 1 July heating degree days 1396 1361  
Cooling Degree Days 0 0  
Month to date cooling degree days 0 0  
Year to date cooling degree days 3 2  
Moisture  
Dew Point 25 °F    
Average Humidity 61    
Maximum Humidity 75    
Minimum Humidity 48    
Precipitation  
Precipitation 0.00 in 0.38 in 2.51 in (2016)
Month to date precipitation 5.82 8.29  
Year to date precipitation 53.64 51.84  
Sea Level Pressure  
Sea Level Pressure 30.31 in    
Wind  
Wind Speed 6 mph (SE)    
Max Wind Speed 10 mph    
Max Gust Speed -    
Visibility 10 miles    
Events      
T = Trace of Precipitation, MM = Missing Value Source: NWS Daily Summary

Daily Weather History Graph

Daily Weather History Graph

Search for Another Location

Airport or City:

Trip Planner

Search our weather history database for the weather conditions in past years. The results will help you decide how hot, cold, wet, or windy it might be!

Date:

Astronomy

Nov. 25, 2010 Rise Set
Actual Time 7:23 AM PST 4:44 PM PST
Civil Twilight 6:51 AM PST 5:16 PM PST
Nautical Twilight 6:16 AM PST 5:51 PM PST
Astronomical Twilight 5:41 AM PST 6:25 PM PST
Moon 8:49 PM PST (11/25) 10:56 AM PST (11/25)
Length of Visible Light 10h 24m
Length of Day
9h 21m
Waning Gibbous, 82% of the Moon is Illuminated
Nov 25
Waning Gibbous
Nov 28
Last Quarter
Dec 5
New
Dec 13
First Quarter
Dec 21
Full

Hourly Weather History & Observations

Time (PST) Temp. Windchill Dew Point Humidity Pressure Visibility Wind Dir Wind Speed Gust Speed Precip Events Conditions
12:15 AM 33.8 °F 28.6 °F 24.8 °F 70% 30.38 in 10.0 mi SSE 5.8 mph - N/A   Clear
12:35 AM 32.0 °F 24.8 °F 26.6 °F 80% 30.38 in 10.0 mi SSE 8.1 mph - N/A   Clear
12:55 AM 33.8 °F 27.7 °F 26.6 °F 75% 30.38 in 10.0 mi SSE 6.9 mph - N/A   Clear
1:15 AM 32.0 °F 24.2 °F 24.8 °F 75% 30.38 in 10.0 mi SSE 9.2 mph - N/A   Clear
1:35 AM 32.0 °F 25.6 °F 24.8 °F 75% 30.38 in 10.0 mi SSE 6.9 mph - N/A   Clear
1:55 AM 33.8 °F 27.7 °F 24.8 °F 70% 30.37 in 10.0 mi SE 6.9 mph - N/A   Clear
2:15 AM 32.0 °F 27.5 °F 24.8 °F 75% 30.38 in 10.0 mi SE 4.6 mph - N/A   Clear
2:35 AM 32.0 °F 24.8 °F 24.8 °F 75% 30.38 in 10.0 mi SSE 8.1 mph - N/A   Clear
2:55 AM 32.0 °F 24.2 °F 21.2 °F 64% 30.38 in 10.0 mi SE 9.2 mph - N/A   Clear
3:15 AM 33.8 °F 27.0 °F 24.8 °F 70% 30.38 in 10.0 mi SSE 8.1 mph - N/A   Clear
3:35 AM 33.8 °F 27.0 °F 24.8 °F 70% 30.38 in 10.0 mi SE 8.1 mph - N/A   Clear
3:55 AM 33.8 °F 27.0 °F 23.0 °F 65% 30.37 in 10.0 mi ESE 8.1 mph - N/A   Clear
4:15 AM 33.8 °F 28.6 °F 23.0 °F 65% 30.38 in 10.0 mi SE 5.8 mph - N/A   Clear
4:35 AM 32.0 °F 26.4 °F 21.2 °F 64% 30.38 in 10.0 mi SSE 5.8 mph - N/A   Clear
4:55 AM 32.0 °F 25.6 °F 21.2 °F 64% 30.37 in 10.0 mi South 6.9 mph - N/A   Clear
5:15 AM 32.0 °F 26.4 °F 23.0 °F 69% 30.36 in 10.0 mi SE 5.8 mph - N/A   Clear
5:35 AM 33.8 °F 28.6 °F 23.0 °F 65% 30.36 in 10.0 mi SE 5.8 mph - N/A   Clear
5:55 AM 32.0 °F 27.5 °F 21.2 °F 64% 30.35 in 10.0 mi SSE 4.6 mph - N/A   Clear
6:15 AM 32.0 °F 27.5 °F 24.8 °F 75% 30.35 in 10.0 mi SE 4.6 mph - N/A   Clear
6:35 AM 30.2 °F 25.4 °F 21.2 °F 69% 30.35 in 10.0 mi SSE 4.6 mph - N/A   Clear
6:55 AM 30.2 °F 23.4 °F 21.2 °F 69% 30.35 in 10.0 mi SE 6.9 mph - N/A   Clear
7:15 AM 32.0 °F 27.5 °F 21.2 °F 64% 30.35 in 10.0 mi South 4.6 mph - N/A   Clear
7:35 AM 32.0 °F 27.5 °F 19.4 °F 60% 30.36 in 10.0 mi SE 4.6 mph - N/A   Clear
7:55 AM 32.0 °F 27.5 °F 21.2 °F 64% 30.35 in 10.0 mi SSE 4.6 mph - N/A   Clear
8:15 AM 33.8 °F 27.7 °F 21.2 °F 60% 30.34 in 10.0 mi SSE 6.9 mph - N/A   Clear
8:35 AM 35.6 °F 29.9 °F 21.2 °F 56% 30.35 in 10.0 mi SE 6.9 mph - N/A   Clear
8:55 AM 37.4 °F 34.9 °F 21.2 °F 52% 30.35 in 10.0 mi SSE 3.5 mph - N/A   Clear
9:15 AM 37.4 °F 34.9 °F 21.2 °F 52% 30.36 in 10.0 mi SSE 3.5 mph - N/A   Clear
9:35 AM 39.2 °F 35.9 °F 21.2 °F 49% 30.35 in 10.0 mi SSE 4.6 mph - N/A   Clear
9:55 AM 39.2 °F 37.0 °F 21.2 °F 49% 30.35 in 10.0 mi SSE 3.5 mph - N/A   Clear
10:15 AM 42.8 °F 38.6 °F 23.0 °F 46% 30.34 in 10.0 mi South 6.9 mph - N/A   Clear
10:35 AM 42.8 °F 38.6 °F 24.8 °F 49% 30.33 in 10.0 mi SE 6.9 mph - N/A   Clear
10:55 AM 42.8 °F 38.6 °F 24.8 °F 49% 30.32 in 10.0 mi SE 6.9 mph - N/A   Clear
11:15 AM 44.6 °F 41.4 °F 24.8 °F 46% 30.32 in 10.0 mi ESE 5.8 mph - N/A   Clear
11:35 AM 44.6 °F 41.4 °F 28.4 °F 53% 30.31 in 10.0 mi ESE 5.8 mph - N/A   Clear
11:55 AM 44.6 °F 42.2 °F 28.4 °F 53% 30.30 in 10.0 mi ESE 4.6 mph - N/A   Clear
12:15 PM 44.6 °F 43.1 °F 30.2 °F 57% 30.29 in 10.0 mi ESE 3.5 mph - N/A   Clear
12:35 PM 44.6 °F 42.2 °F 30.2 °F 57% 30.28 in 10.0 mi ESE 4.6 mph - N/A   Clear
12:55 PM 46.4 °F 44.3 °F 30.2 °F 53% 30.27 in 10.0 mi SE 4.6 mph - N/A   Clear
1:15 PM 44.6 °F 43.1 °F 30.2 °F 57% 30.26 in 10.0 mi East 3.5 mph - N/A   Clear
1:35 PM 46.4 °F 45.2 °F 30.2 °F 53% 30.25 in 10.0 mi ESE 3.5 mph - N/A   Clear
1:55 PM 46.4 °F - 30.2 °F 53% 30.24 in 10.0 mi Calm Calm - N/A   Clear
2:15 PM 46.4 °F - 30.2 °F 53% 30.24 in 10.0 mi Calm Calm - N/A   Clear
2:35 PM 46.4 °F - 30.2 °F 53% 30.23 in 10.0 mi Calm Calm - N/A   Clear
2:55 PM 46.4 °F 45.2 °F 30.2 °F 53% 30.23 in 10.0 mi SE 3.5 mph - N/A   Clear
3:15 PM 44.6 °F 42.2 °F 30.2 °F 57% 30.23 in 10.0 mi SSE 4.6 mph - N/A   Clear
3:35 PM 44.6 °F 42.2 °F 30.2 °F 57% 30.23 in 10.0 mi SSE 4.6 mph - N/A   Clear
3:55 PM 44.6 °F 41.4 °F 30.2 °F 57% 30.22 in 10.0 mi SSE 5.8 mph - N/A   Clear
4:15 PM 42.8 °F 38.6 °F 28.4 °F 57% 30.22 in 10.0 mi South 6.9 mph - N/A   Clear
4:35 PM 42.8 °F 38.6 °F 26.6 °F 53% 30.22 in 10.0 mi South 6.9 mph - N/A   Clear
4:55 PM 41.0 °F 36.4 °F 26.6 °F 57% 30.21 in 10.0 mi SSE 6.9 mph - N/A   Clear
5:15 PM 39.2 °F 35.0 °F 26.6 °F 61% 30.22 in 10.0 mi SSE 5.8 mph - N/A   Clear
5:35 PM 39.2 °F 34.2 °F 26.6 °F 61% 30.21 in 10.0 mi SSE 6.9 mph - N/A   Clear
5:55 PM 39.2 °F 33.6 °F 26.6 °F 61% 30.21 in 10.0 mi SE 8.1 mph - N/A   Clear
6:15 PM 39.2 °F 34.2 °F 26.6 °F 61% 30.21 in 10.0 mi SE 6.9 mph - N/A   Clear
6:35 PM 39.2 °F 33.0 °F 28.4 °F 65% 30.20 in 10.0 mi SSE 9.2 mph - N/A   Clear
6:55 PM 39.2 °F 35.0 °F 26.6 °F 61% 30.22 in 10.0 mi SE 5.8 mph - N/A   Clear
7:15 PM 39.2 °F 35.0 °F 28.4 °F 65% 30.22 in 10.0 mi SSE 5.8 mph - N/A   Clear
7:35 PM 37.4 °F 31.4 °F 26.6 °F 65% 30.22 in 10.0 mi South 8.1 mph - N/A   Clear
7:55 PM 37.4 °F 32.1 °F 21.2 °F 52% 30.22 in 10.0 mi SSE 6.9 mph - N/A   Clear
8:15 PM 39.2 °F 33.0 °F 28.4 °F 65% 30.21 in 10.0 mi SSE 9.2 mph - N/A   Clear
8:35 PM 37.4 °F 30.3 °F 26.6 °F 65% 30.20 in 10.0 mi South 10.4 mph - N/A   Clear
8:55 PM 37.4 °F 30.8 °F 28.4 °F 70% 30.20 in 10.0 mi South 9.2 mph - N/A   Clear
9:15 PM 37.4 °F 30.8 °F 28.4 °F 70% 30.20 in 10.0 mi SSE 9.2 mph - N/A   Clear
9:35 PM 37.4 °F 31.4 °F 28.4 °F 70% 30.20 in 10.0 mi SSE 8.1 mph - N/A   Clear
9:55 PM 37.4 °F 30.3 °F 28.4 °F 70% 30.20 in 10.0 mi SSE 10.4 mph - N/A   Clear
10:15 PM 39.2 °F 32.0 °F 28.4 °F 65% 30.19 in 10.0 mi SE 11.5 mph - N/A   Clear
10:35 PM 37.4 °F 32.1 °F 28.4 °F 70% 30.20 in 10.0 mi SSE 6.9 mph - N/A   Clear
10:55 PM 37.4 °F 32.1 °F 28.4 °F 70% 30.19 in 10.0 mi SSE 6.9 mph - N/A   Clear
11:15 PM 37.4 °F 32.1 °F 26.6 °F 65% 30.17 in 10.0 mi SSE 6.9 mph - N/A   Clear
11:35 PM 37.4 °F 32.1 °F 28.4 °F 70% 30.19 in 10.0 mi SSE 6.9 mph - N/A   Partly Cloudy
11:55 PM 39.2 °F 34.2 °F 28.4 °F 65% 30.19 in 10.0 mi SE 6.9 mph - N/A   Mostly Cloudy